Weather History for Thermal, CA

Change the Weather History Date:

Tuesday, January 14, 2014

  Actual Average Record
Temperature  
Mean Temperature 61 °F 55 °F  
Max Temperature 84 °F 71 °F 85 °F (1967)
Min Temperature 38 °F 38 °F 18 °F (2007)
Degree Days  
Heating Degree Days 4 10  
Month to date heating degree days 142 155  
Since 1 July heating degree days 617 693  
Cooling Degree Days 0 0  
Month to date cooling degree days 0 0  
Year to date cooling degree days 0 0  
Growing Degree Days 10 (Base 50)    
Moisture  
Dew Point 16 °F    
Average Humidity 30    
Maximum Humidity 54    
Minimum Humidity 5    
Precipitation  
Precipitation 0.00 in 0.02 in 0.36 in (1993)
Month to date precipitation 0.00 0.32  
Year to date precipitation 0.00 0.32  
Since 1 July precipitation 1.47 1.70  
Snow  
Snow 0.00 in - - ()
Month to date snowfall 0.0  
Year to date snowfall 0.0  
Since 1 July snowfall 0.0  
Snow Depth 0.00 in    
Sea Level Pressure  
Sea Level Pressure 30.28 in    
Wind  
Wind Speed 7 mph (NW)    
Max Wind Speed 18 mph    
Max Gust Speed 24 mph    
Visibility 10 miles    
Events      
T = Trace of Precipitation, MM = Missing Value Source: NWS Daily Summary

Daily Weather History Graph

Daily Weather History Graph

Search for Another Location

Airport:

Trip Planner

Search our weather history database for the weather conditions in past years. The results will help you decide how hot, cold, wet, or windy it might be!

Date:

Astronomy

Jan. 14, 2014 Rise Set
Actual Time 6:49 AM PST 4:58 PM PST
Civil Twilight 6:22 AM PST 5:25 PM PST
Nautical Twilight 5:51 AM PST 5:56 PM PST
Astronomical Twilight 5:21 AM PST 6:26 PM PST
Moon 4:06 PM PST (1/14) 5:28 AM PST (1/14)
Length of Visible Light 11h 03m
Length of Day
10h 09m
Waxing Gibbous, 98% of the Moon is Illuminated
Jan 14
Waxing Gibbous
Jan 15
Full
Jan 23
Last Quarter
Jan 30
New
Feb 6
First Quarter

Hourly Weather History & Observations

Time (PST) Temp. Windchill Dew Point Humidity Pressure Visibility Wind Dir Wind Speed Gust Speed Precip Events Conditions
12:52 AM 44.1 °F 40.1 °F 26.1 °F 49% 30.29 in 10.0 mi North 6.9 mph - N/A   Clear
1:52 AM 39.9 °F 36.7 °F 24.1 °F 53% 30.30 in 10.0 mi West 4.6 mph - N/A   Clear
2:52 AM 42.1 °F 40.2 °F 24.1 °F 49% 30.29 in 10.0 mi North 3.5 mph - N/A   Clear
3:52 AM 46.0 °F - 24.1 °F 42% 30.28 in 10.0 mi Calm Calm - N/A   Clear
4:52 AM 37.9 °F 35.5 °F 23.0 °F 55% 30.29 in 10.0 mi SE 3.5 mph - N/A   Clear
5:52 AM 42.1 °F 40.2 °F 23.0 °F 47% 30.30 in 10.0 mi North 3.5 mph - N/A   Clear
6:52 AM 42.1 °F 40.2 °F 21.9 °F 45% 30.32 in 10.0 mi South 3.5 mph - N/A   Clear
7:52 AM 54.0 °F - 25.0 °F 33% 30.33 in 10.0 mi NNW 5.8 mph - N/A   Clear
8:52 AM 73.0 °F - 19.0 °F 13% 30.35 in 10.0 mi Variable 3.5 mph - N/A   Clear
9:52 AM 78.1 °F - 14.0 °F 9% 30.34 in 10.0 mi WNW 12.7 mph - N/A   Clear
10:52 AM 79.0 °F - 12.0 °F 8% 30.31 in 10.0 mi WNW 9.2 mph - N/A   Clear
11:52 AM 82.9 °F - 10.9 °F 7% 30.27 in 10.0 mi NW 10.4 mph - N/A   Clear
12:52 PM 82.9 °F - 9.0 °F 6% 30.25 in 10.0 mi NW 11.5 mph - N/A   Clear
1:52 PM 84.0 °F - 7.0 °F 5% 30.23 in 10.0 mi NW 11.5 mph 20.7 mph N/A   Clear
2:52 PM 82.9 °F - 8.1 °F 6% 30.23 in 10.0 mi NNW 12.7 mph - N/A   Clear
3:52 PM 81.0 °F - 9.0 °F 6% 30.23 in 10.0 mi NW 13.8 mph - N/A   Clear
4:52 PM 75.9 °F - 9.0 °F 8% 30.23 in 10.0 mi NW 9.2 mph - N/A   Clear
5:52 PM 72.0 °F - 12.0 °F 10% 30.24 in 10.0 mi NW 9.2 mph - N/A   Clear
6:52 PM 73.0 °F - 10.9 °F 9% 30.26 in 10.0 mi NNW 11.5 mph - N/A   Clear
7:52 PM 70.0 °F - 12.0 °F 11% 30.27 in 10.0 mi NNW 8.1 mph - N/A   Clear
8:52 PM 69.1 °F - 12.0 °F 11% 30.28 in 10.0 mi NW 11.5 mph - N/A   Clear
9:52 PM 66.0 °F - 12.9 °F 13% 30.28 in 10.0 mi NW 5.8 mph - N/A   Clear
10:52 PM 61.0 °F - 14.0 °F 16% 30.27 in 10.0 mi NE 5.8 mph - N/A   Clear
11:52 PM 55.0 °F - 16.0 °F 22% 30.26 in 10.0 mi NNE 8.1 mph - N/A   Clear